Daggett-Barstow, CA

8:00 PM PDT on July 26, 2017 (GMT -0700)
Barstow-Daggett

Weather History for KDAG - April, 2012

Change the Weather History Date:

Thursday, April 5, 2012

  Actual Average Record
Temperature  
Mean Temperature 58 °F 62 °F  
Max Temperature 71 °F 76 °F 96 °F (1960)
Min Temperature 46 °F 48 °F 33 °F (2009)
Degree Days  
Heating Degree Days 6    
Cooling Degree Days 0    
Growing Degree Days 8 (Base 50)    
Moisture  
Dew Point 22 °F    
Average Humidity 29    
Maximum Humidity 52    
Minimum Humidity 15    
Precipitation  
Precipitation 0.00 in 0.00 in 0.50 in (1951)
Month to date precipitation 0.04  
Year to date precipitation 1.80  
Sea Level Pressure  
Sea Level Pressure 29.83 in    
Wind  
Wind Speed 19 mph (West)    
Max Wind Speed 37 mph    
Max Gust Speed 45 mph    
Visibility 10 miles    
Events      
T = Trace of Precipitation, MM = Missing Value Source: NWS Daily Summary

Daily Weather History Graph

Daily Weather History Graph

Search for Another Location

Airport or City:

Trip Planner

Search our weather history database for the weather conditions in past years. The results will help you decide how hot, cold, wet, or windy it might be!

Date:

Astronomy

Apr. 05, 2012 Rise Set
Actual Time 6:27 AM PDT 7:12 PM PDT
Civil Twilight 6:02 AM PDT 7:37 PM PDT
Nautical Twilight 5:32 AM PDT 8:07 PM PDT
Astronomical Twilight 5:01 AM PDT 8:38 PM PDT
Moon 6:23 PM PDT (4/5) 5:24 AM PDT (4/5)
Length of Visible Light 13h 35m
Length of Day
12h 44m
Waxing Gibbous, 98% of the Moon is Illuminated
Apr 5
Waxing Gibbous
Apr 6
Full
Apr 13
Last Quarter
Apr 21
New
Apr 29
First Quarter

Hourly Weather History & Observations

Time (PDT) Temp. Dew Point Humidity Pressure Visibility Wind Dir Wind Speed Gust Speed Precip Events Conditions
12:50 AM 54.0 °F 32.0 °F 43% 29.87 in 10.0 mi SW 11.5 mph - N/A   Clear
2:50 AM 50.0 °F 32.0 °F 50% 29.83 in 10.0 mi West 6.9 mph - N/A   Clear
4:50 AM 48.9 °F 30.9 °F 50% 29.83 in 10.0 mi WNW 6.9 mph - N/A   Clear
5:50 AM 46.9 °F 30.0 °F 52% 29.84 in 10.0 mi WNW 10.4 mph - N/A   Clear
7:50 AM 50.0 °F 24.1 °F 36% 29.84 in 10.0 mi WSW 21.9 mph - N/A   Clear
8:50 AM 53.1 °F 23.0 °F 31% 29.84 in 10.0 mi West 25.3 mph - N/A   Clear
9:50 AM 54.0 °F 21.9 °F 29% 29.84 in 10.0 mi West 24.2 mph 29.9 mph N/A   Clear
10:50 AM 60.1 °F 21.9 °F 23% 29.84 in 10.0 mi West 21.9 mph - N/A   Clear
11:50 AM 63.0 °F 23.0 °F 22% 29.82 in 10.0 mi West 20.7 mph 26.5 mph N/A   Clear
12:50 PM 66.0 °F 24.1 °F 20% 29.80 in 10.0 mi West 17.3 mph 28.8 mph N/A   Clear
1:50 PM 71.1 °F 25.0 °F 18% 29.75 in 10.0 mi West 28.8 mph 36.8 mph N/A   Clear
2:50 PM 70.0 °F 23.0 °F 17% 29.75 in 10.0 mi West 28.8 mph 39.1 mph N/A   Clear
3:50 PM 69.1 °F 19.9 °F 15% 29.75 in 10.0 mi West 24.2 mph 39.1 mph N/A   Clear
4:50 PM 64.9 °F 19.9 °F 18% 29.75 in 10.0 mi West 27.6 mph 43.7 mph N/A   Clear
5:50 PM 61.0 °F 18.0 °F 19% 29.78 in 10.0 mi West 36.8 mph 44.9 mph N/A   Clear
6:50 PM 57.0 °F 12.9 °F 18% 29.81 in 10.0 mi West 34.5 mph 43.7 mph N/A   Clear
7:50 PM 54.0 °F 18.0 °F 24% 29.85 in 10.0 mi WSW 27.6 mph 40.3 mph N/A   Clear
8:50 PM 51.1 °F 19.0 °F 28% 29.89 in 10.0 mi West 34.5 mph 41.4 mph N/A   Clear
9:50 PM 48.9 °F 17.1 °F 28% 29.90 in 10.0 mi West 32.2 mph 41.4 mph N/A   Clear
10:50 PM 48.0 °F 18.0 °F 30% 29.93 in 10.0 mi West 33.4 mph 41.4 mph N/A   Clear
11:50 PM 46.9 °F 17.1 °F 30% 29.94 in 10.0 mi West 29.9 mph 39.1 mph N/A   Clear